Starlink 1456

operational
NORAD ID: 45673 Int'l Des: 2020-035 Owner: SPXS Country: US Constellation: starlink
LEOCIRCULARSTARLINK_TYPE

关于 Starlink 1456

正在加载描述...

实时位置

正在加载3D地球...

即将过境

高度历史

Altitude vs Time

uPlot chart will show altitude changes over time

两行轨道根数

1 45673U 20035S 25259.04302803 .00004205 00000-0 30093-3 0 9997
2 45673 53.0542 130.6403 0001621 91.0432 269.0743 15.06413168292416
Epoch: Sep 16, 2025 • Age: 10 hours

当前状态

高度 552.5 km
速度 7.59 km/s
星下点 52.56°N, 46.56°E
发射日期 Jun 4, 2020
运行时间 5.2 years
类型 internet

技术详情

分类 Payload
质量 260.00 kg
干质量 248.00 kg
总质量 260.00 kg
长度 0.20 m
直径 2.80 m
跨度 9.00 m
形状 Box + pan
制造商 SPXS
平台类型 Starlink
阶段状态 In Orbit
所有者/国家 SPXS/US

大型星座

Loading constellations...